Weather Roundup
Issued by NWS Springfield, MO

Home | Current Version | Previous Version | Text Only | Print | Product List | Glossary On
Versions: 1 2 3 4 5 6 7 8 9 10 11 12 13 14 15 16 17 18 19 20 21 22 23 24 25 26 27 28 29 30 31 32 33 34 35 36 37 38 39 40 41 42 43 44 45 46 47 48 49 50
000
NZUS99 KSGF 170459
HRRSGF

HOURLY WEATHER
NATIONAL WEATHER SERVICE SPRINGFIELD MO
1200 AM CDT THU APR 17 2014

......SGF CWA......

CITY           SKY/WX    TMP DP  RH WIND       PRES   REMARKS
SPRINGFIELD    CLEAR     49  30  48 S14       30.07R
JOPLIN         CLEAR     52  31  44 S15       30.05R
WEST PLAINS    CLEAR     40  29  64 S5        30.15R
ROLLA          CLEAR     46  29  51 S13       30.08S
OSAGE BEACH    CLEAR     48  27  43 S9G16     30.08R

......SURROUNDING SGF CWA......

CITY           SKY/WX    TMP DP  RH WIND       PRES   REMARKS
CHANUTE        PTCLDY    51  34  52 SW8       30.04R
PARSONS        PTCLDY    51  33  50 S7        30.04R
COFFEYVILLE    PTCLDY    50  34  54 S8        30.04R
EMPORIA        PTCLDY    46  33  60 N13       30.09R
SILOAM SPRINGS CLEAR     46  28  49 S9        30.11S
HARRISON AR    CLEAR     43  30  60 SE5       30.13R
NEAR YELLVILLE CLEAR     45  25  45 CALM      30.15R

......KANSAS AND MISSOURI......

CITY           SKY/WX    TMP DP  RH WIND       PRES   REMARKS
KANSAS CTY INT MOCLDY    44  32  62 NW14      30.07R
DOWNTOWN KC    PTCLDY    49  33  54 NW12G17   30.06R
COLUMBIA       PTCLDY    50  29  44 S16       30.05R
SEDALIA        CLEAR     52  30  43 S13       30.03R
ST JOSEPH      CLOUDY    42  32  67 NW12      30.10R
ST LOUIS       PTCLDY    50  27  40 S10       30.14S
SPIRIT OF STL  CLEAR     48  26  42 VRB5      30.12S
KIRKSVILLE     PTCLDY    48  30  49 S7        29.99R
WICHITA        PTCLDY    51  34  52 N17G26    30.08R
TOPEKA         CLOUDY    46  33  60 N14       30.12R
OLATHE         CLEAR     48  33  56 NW14G21   30.05R

......TENNESSEE......

CITY           SKY/WX    TMP DP  RH WIND       PRES   REMARKS
MEMPHIS        PTCLDY    48  35  60 CALM      30.18R
NASHVILLE      PTCLDY    44  36  73 S3        30.23R

......ARKANSAS.......

CITY           SKY/WX    TMP DP  RH WIND       PRES   REMARKS
FAYETTEVILLE   CLEAR     39  34  82 CALM      30.12R
FT SMITH       CLEAR     48  35  60 CALM      30.13R
LITTLE ROCK    PTCLDY    48  37  65 S6        30.16R

......OKLAHOMA.......

CITY           SKY/WX    TMP DP  RH WIND       PRES   REMARKS
TULSA          PTCLDY    55  35  47 S9        30.04R
PONCA CITY     PTCLDY    56  33  42 S9        30.01R
MCALESTER      CLEAR     49  34  56 E6        30.09R
OKLAHOMA CITY  PTCLDY    55  35  47 SE14      30.01R

......IOWA............

CITY           SKY/WX    TMP DP  RH WIND       PRES   REMARKS
DES MOINES     CLOUDY    44  37  76 NW21G35   29.98R
QUAD CITIES    CLOUDY    47  28  47 S15G22    30.01S

......ILLINOIS........

CITY           SKY/WX    TMP DP  RH WIND       PRES   REMARKS
QUINCY         PTCLDY    48  26  42 S13       30.04R
CHICAGO        CLOUDY    44  23  43 S15       30.16S



USA.gov is the U.S. government's official web portal to all federal, state and local government web resources and services.